Morrisville, VT

12:54 PM EST on November 22, 2019 (GMT -0500)
Morrisville Stowe State

Weather History for KMVL - September, 2019

Change the Weather History Date:

Saturday, September 28, 2019

  Actual Average Record
Temperature  
Mean Temperature 60 °F 53 °F  
Max Temperature 70 °F 65 °F 80 °F (2014)
Min Temperature 50 °F 41 °F 27 °F (2000)
Degree Days  
Heating Degree Days 5 13  
Month to date heating degree days 182 212  
Since 1 July heating degree days 247 307  
Cooling Degree Days 0 0  
Month to date cooling degree days 11 13  
Year to date cooling degree days 254 260  
Growing Degree Days 10 (Base 50)    
Moisture  
Dew Point 57 °F    
Average Humidity 89    
Maximum Humidity 97    
Minimum Humidity 68    
Precipitation  
Precipitation 0.12 in 0.12 in 0.76 in (1996)
Month to date precipitation 3.33 3.15  
Year to date precipitation 30.56 26.91  
Sea Level Pressure  
Sea Level Pressure 30.03 in    
Wind  
Wind Speed 1 mph ()    
Max Wind Speed 14 mph    
Max Gust Speed 21 mph    
Visibility 8.5 miles    
Events Rain    
T = Trace of Precipitation, MM = Missing Value Source: Averaged Metar Reports

Daily Weather History Graph

Daily Weather History Graph

Search for Another Location

Airport or City:

Astronomy

Sep. 28, 2019 Rise Set
Actual Time 6:44 AM EDT 6:37 PM EDT
Civil Twilight 6:15 AM EDT 7:06 PM EDT
Nautical Twilight 5:41 AM EDT 7:39 PM EDT
Astronomical Twilight 5:06 AM EDT 8:14 PM EDT
Moon 6:13 AM EDT (9/28) 7:02 PM EDT (9/28)
Length of Visible Light 12h 50m
Length of Day
11h 52m
Waning Crescent, 0% of the Moon is Illuminated
Sep 28
Waning Crescent
Sep 28
New
Oct 5
First Quarter
Oct 13
Full
Oct 21
Last Quarter

Hourly Weather History & Observations

Time (EDT) Temp. Dew Point Humidity Pressure Visibility Wind Dir Wind Speed Gust Speed Precip Events Conditions
12:54 AM 52.0 °F 48.9 °F 89% 30.06 in 10.0 mi Calm Calm - N/A   Overcast
1:54 AM 51.1 °F 48.9 °F 92% 30.05 in 10.0 mi Calm Calm - N/A   Mostly Cloudy
2:54 AM 52.0 °F 50.0 °F 93% 30.03 in 10.0 mi Calm Calm - N/A   Overcast
3:54 AM 51.1 °F 48.9 °F 92% 30.03 in 10.0 mi Calm Calm - N/A   Mostly Cloudy
4:54 AM 51.1 °F 48.9 °F 92% 30.02 in 10.0 mi Calm Calm - N/A   Clear
5:54 AM 51.1 °F 48.9 °F 92% 30.03 in 10.0 mi Calm Calm - N/A   Scattered Clouds
6:54 AM 52.0 °F 50.0 °F 93% 30.03 in 10.0 mi Calm Calm - N/A   Scattered Clouds
7:54 AM 53.1 °F 50.0 °F 89% 30.04 in 10.0 mi Calm Calm - N/A   Scattered Clouds
8:54 AM 54.0 °F 51.1 °F 90% 30.02 in 10.0 mi Calm Calm - 0.00 in   Overcast
9:54 AM 55.9 °F 52.0 °F 87% 30.02 in 10.0 mi Calm Calm - N/A   Overcast
10:54 AM 62.1 °F 54.0 °F 75% 30.00 in 10.0 mi NNW 3.5 mph - N/A   Mostly Cloudy
11:54 AM 66.9 °F 55.9 °F 68% 29.98 in 10.0 mi North 4.6 mph - N/A   Mostly Cloudy
12:54 PM 63.0 °F 57.9 °F 84% 29.97 in 10.0 mi NE 4.6 mph - 0.00 in Rain Light Rain
1:54 PM 64.0 °F 59.0 °F 84% 29.99 in 10.0 mi East 3.5 mph - 0.00 in Rain Light Rain
2:37 PM 62.1 °F 59.0 °F 90% 29.98 in 2.0 mi Calm Calm - 0.06 in Rain Rain
2:47 PM 62.1 °F 60.1 °F 93% 29.98 in 10.0 mi Calm Calm - 0.06 in   Overcast
2:54 PM 63.0 °F 60.1 °F 90% 29.99 in 10.0 mi Calm Calm - 0.06 in   Overcast
3:54 PM 69.1 °F 62.1 °F 78% 29.98 in 10.0 mi South 4.6 mph - N/A   Mostly Cloudy
4:54 PM 68.0 °F 63.0 °F 84% 29.99 in 10.0 mi Calm Calm - N/A   Scattered Clouds
5:54 PM 66.0 °F 63.0 °F 90% 30.01 in 10.0 mi Calm Calm - 0.00 in Rain Light Rain
6:54 PM 64.0 °F 63.0 °F 96% 30.03 in 6.0 mi Calm Calm - 0.01 in Rain Light Rain
7:29 PM 64.0 °F 63.0 °F 96% 30.03 in 6.0 mi North 3.5 mph - 0.02 in Rain Light Rain
7:54 PM 64.0 °F 62.1 °F 93% 30.03 in 5.0 mi Calm Calm - 0.03 in Rain Light Rain
8:10 PM 64.0 °F 62.1 °F 93% 30.03 in 5.0 mi Calm Calm - 0.00 in Rain Light Rain
8:18 PM 64.0 °F 62.1 °F 93% 30.03 in 5.0 mi NNW 3.5 mph - 0.00 in Rain Light Rain
8:41 PM 63.0 °F 62.1 °F 97% 30.04 in 5.0 mi NNE 3.5 mph - 0.01 in Rain Light Rain
8:54 PM 64.0 °F 62.1 °F 93% 30.04 in 3.0 mi Calm Calm - 0.02 in Rain Light Rain
9:07 PM 64.0 °F 63.0 °F 96% 30.04 in 5.0 mi Calm Calm - 0.00 in   Overcast
9:19 PM 64.0 °F 62.1 °F 93% 30.06 in 6.0 mi North 6.9 mph - 0.00 in Rain Light Rain
9:54 PM 64.0 °F 61.0 °F 90% 30.08 in 10.0 mi NNW 9.2 mph - 0.00 in   Overcast
10:54 PM 63.0 °F 59.0 °F 87% 30.09 in 10.0 mi Variable 6.9 mph - 0.00 in   Clear
11:19 PM 62.1 °F 59.0 °F 90% 30.10 in 10.0 mi WNW 4.6 mph - N/A   Mostly Cloudy
11:50 PM 62.6 °F 57.2 °F 82% 30.12 in 10.0 mi Variable 3.5 mph - N/A   Overcast
11:54 PM 62.1 °F 57.9 °F 86% 30.12 in 10.0 mi WNW 5.8 mph - N/A   Overcast